User: anonymous   Login
Location: Beaurevoir
(49.9971°N, 3.3085°E)
Time: 16:54:17
(UTC+00:00)
Language:

IDEFIX/ARIANE 42P - Orbit

View from above orbital plane
View from above orbital plane
View from above satellite
View from above satellite

Ground track
Ground track

The orbit data is extracted from the following two-line orbital elements,

1 27422U 02021B   24195.80646864  .00000558  00000-0  23208-3 0  9991
2 27422  98.5274 132.9603 0012235 160.0728 200.0934 14.30165604157679
Epoch (UTC): 13 July 2024 19:21:18
Eccentricity: 0.0012235
inclination: 98.5274°
perigee height: 782 km
apogee height: 800 km
right ascension of ascending node: 132.9603°
argument of perigee: 160.0728°
revolutions per day: 14.30165604
mean anomaly at epoch: 200.0934°
orbit number at epoch: 15767

The dashed part of the orbit path shows where the satellite is in the earth's shadow,  

DLR